Regional Weather Roundup
Issued by NWS

Home | Current Version | Previous Version | Graphics & Text | Print | Product List | Glossary On
Versions: 1 2 3 4 5 6 7 8 9 10 11 12 13 14 15 16 17 18 19 20 21 22 23 24 25 26 27 28 29 30 31 32 33 34 35 36 37 38 39 40 41 42 43 44 45 46 47 48 49 50
000
ASUS43 KMPX 211801
RWRMN
WEATHER ROUNDUP FOR MINNESOTA
NATIONAL WEATHER SERVICE TWIN CITIES/CHANHASSEN MN
1200 PM CST SUN DEC 21 2014


NOTE: "FAIR" INDICATES FEW OR NO CLOUDS BELOW 12,000 FEET WITH NO
SIGNIFICANT WEATHER AND/OR OBSTRUCTIONS TO VISIBILITY. N/A MEANS
CURRENT SKY AND/OR WEATHER CONDITIONS ARE NOT AVAILABLE.

MNZ060>063-068>070-211900-
   Twin Cities Metro

CITY           SKY/WX    TMP DP  RH WIND       PRES   REMARKS
TWIN CITIES    LGT SNOW  34  33  96 SE9       29.83F FOG     WCI  27
6HR MIN TEMP:  32; 6HR MAX TEMP:  34; 6HR PCP:  0.07;

ST PAUL        LGT SNOW  33  32  96 S6        29.84F FOG     WCI  28
CRYSTAL        LGT SNOW  35  33  92 SE8       29.80F FOG     WCI  29
BLAINE         LGT SNOW  36  36 100 SE10      29.82F
LAKEVILLE      DRZL/FOG  34  34 100 S7        29.82F VSB 3/4 WCI  28
EDEN PRAIRIE   FOG       35  34  96 S10       29.80F VSB 3/4 WCI  27
6HR MIN TEMP:  33; 6HR MAX TEMP:  35; 6HR PCP:  0.02;

SOUTH ST PAUL  LGT SNOW  34  33  96 SE7       29.83F WCI  28
LAKE ELMO      LGT SNOW  34  32  93 SE8       29.84F WCI  27
$$
MNZ001>005-007-008-013>017-022>024-027-028-211900-
   Northwest Minnesota

CITY           SKY/WX    TMP DP  RH WIND       PRES   REMARKS
BEMIDJI        CLOUDY    30  28  93 S12G20    29.70F FOG     WCI  21
HALLOCK        CLOUDY    30  30 100 CALM      29.65F FOG
ROSEAU         CLOUDY    32  27  80 S14       29.67F HAZE    WCI  22
WARROAD        CLOUDY    30  27  86 S8        29.69F FOG     WCI  23
THIEF RVR FALL CLOUDY    30  28  93 S16       29.67F WCI  19
CROOKSTON      CLOUDY    30  30 100 S18       29.69F FOG     WCI  18
FOSSTON        CLOUDY    28  28 100 SE8       29.68F FOG     WCI  20
DETROIT LAKES  CLOUDY    32  32 100 SE16      29.68F FOG     WCI  21
MOORHEAD       CLOUDY    32  32 100 SE21      29.67F FOG     WCI  20
PARK RAPIDS    CLOUDY    31  30  96 S15       29.70F FOG     WCI  20
MAHNOMEN       CLOUDY    31  29  94 S13       29.68F WCI  21
$$
MNZ006-009>011-018-025>026-211900-
   North Central Minnesota

CITY           SKY/WX    TMP DP  RH WIND       PRES   REMARKS
BAUDETTE       CLOUDY    31  28  89 S10G18    29.70F WCI  22
FLAG ISLAND    CLOUDY    28  28 100 SE15      29.68F WCI  17
INTL FALLS     CLOUDY    30  28  92 S8G17     29.74F WCI  22
6HR MIN TEMP:  29; 6HR MAX TEMP:  30; 6HR PCP:  0.02;

WASKISH        CLOUDY    30  30 100 SE7       29.71F WCI  23
BIG FORK       CLOUDY    30  28  93 S8G17     29.75F FOG     WCI  23
LONGVILLE      CLOUDY    30  30 100 S9        29.73F FOG     WCI  22
GRAND RAPIDS   CLOUDY    30  28  93 S12       29.75F WCI  21
CRANE LAKE     CLOUDY    28  28 100 SE8       29.80F WCI  20
ORR            CLOUDY    30  27  86 S12G20    29.75F WCI  21
COOK           CLOUDY    30  28  93 S8G17     29.78F FOG     WCI  23
WALKER         CLOUDY    30  28  94 SE8       29.72F FOG     WCI  22
$$
MNZ012-019>021-037-211900-
   Northeast Minnesota

CITY           SKY/WX    TMP DP  RH WIND       PRES   REMARKS
DULUTH         FOG       31  29  92 SE10      29.81F VSB 1/4 WCI  22
6HR MIN TEMP:  29; 6HR MAX TEMP:  31; 6HR PCP: TRACE;

ELY            CLOUDY    30  28  93 S9        29.81F WCI  22
HIBBING        CLOUDY    31  28  89 S9        29.78F FOG     WCI  23
EVELETH        CLOUDY    32  32 100 S7        29.80F FOG     WCI  26
DULUTH HARBOR  MIX PCPN  34  30  86 CALM      29.86F
TWO HARBORS    CLOUDY    34  28  80 SE5       29.84F WCI  30
SILVER BAY     CLOUDY    32  30  93 SE5       29.85F FOG     WCI  27
GRAND MARAIS     N/A     35  30  82 SE10      29.92F WCI  27
G MARAIS ARPRT CLOUDY    27  25  93 SE6       29.86F FOG     WCI  20
$$
MNZ029>031-032-039>041-046>048-054>057-064-211900-
   West Central Minnesota

CITY           SKY/WX    TMP DP  RH WIND       PRES   REMARKS
FERGUS FALLS   CLOUDY    30  30 100 S15       29.72F FOG     WCI  19
WHEATON        CLOUDY    30  28  93 SE13G18   29.70F FOG     WCI  20
MORRIS         CLOUDY    34  32  93 S14       29.69F FOG     WCI  24
ALEXANDRIA     FOG       32  31  96 S10       29.71F VSB 1/2 WCI  24
ELBOW LAKE     CLOUDY    31  30  97 S15       29.69F FOG     WCI  20
WADENA         CLOUDY    30  28  93 SE12      29.71F FOG     WCI  21
GLENWOOD       FOG       32  32 100 S13       29.71F VSB 1   WCI  22
APPLETON       CLOUDY    36  32  87 S13G20    29.69F FOG
BENSON         CLOUDY    34  32  93 S13       29.70F FOG     WCI  25
ORTONVILLE     CLOUDY    34  28  80 S10G16    29.69F FOG     WCI  26
MADISON        PTSUNNY   37  36  93 S13       29.68F FOG
WILLMAR        FOG       36  34  93 SE9       29.74F VSB 1/2
$$
MNZ033>034-036-042>043-049>051-058-059-211900-
   Central Minnesota

CITY           SKY/WX    TMP DP  RH WIND       PRES   REMARKS
ST CLOUD       FOG       35  33  92 SE14      29.76F VSB 1   WCI  26
6HR MIN TEMP:  33; 6HR MAX TEMP:  35;

SAUK CENTRE    FOG       32  32 100 SE10      29.72F VSB 1/4 WCI  24
PAYNESVILLE    FOG       31  31 100 E8        29.74F VSB 1/2 WCI  23
AITKIN         CLOUDY    36  30  80 SE8       29.75F HAZE
PINE RIVER     CLOUDY    30  30 100 SE7       29.77F FOG     WCI  23
BRAINERD       CLOUDY    32  31  96 S7        29.75F FOG     WCI  26
STAPLES        CLOUDY    30  30 100 S6        29.72F FOG     WCI  24
LONG PRAIRIE   FOG       32  32 100 SE12      29.73F VSB 1/4 WCI  23
LITTLE FALLS   CLOUDY    32  32 100 SE12      29.74F FOG     WCI  23
LITCHFIELD     FOG       36  36 100 SE6       29.75F VSB 1
BUFFALO        MIX PCPN  34  33  95 SE9       29.78F VSB 3/4 WCI  27
MAPLE LAKE     FOG       35  35  99 SE7       29.77F VSB 3/4 WCI  29
$$
MNZ037-044-045-052-053-211900-
   East Central Minnesota

CITY           SKY/WX    TMP DP  RH WIND       PRES   REMARKS
PRINCETON      CLOUDY    36  34  93 SE9       29.79F FOG
MORA           CLOUDY    32  30  93 SE8       29.82F WCI  25
CAMBRIDGE      FLURRIES  36  28  75 SE7       29.78F
RUSH CITY      CLOUDY    33  32  96 SE9       29.82F WCI  25
MOOSE LAKE     CLOUDY    32  32 100 S5        29.79F FOG     WCI  27
HINCKLEY       CLOUDY    32  32 100 SE7       29.81F FOG     WCI  26
CLOQUET        FOG       30  30 100 SE7       29.81F VSB 3/4 WCI  23
MCGREGOR       CLOUDY    32  32 100 SE8       29.78F WCI  25
$$
MNZ071>073-080-081-089-090-097-098-211900-
   Southwest Minnesota

CITY           SKY/WX    TMP DP  RH WIND       PRES   REMARKS
MONTEVIDEO     CLOUDY    34  34 100 S9        29.72F FOG     WCI  26
GRANITE FALLS  CLOUDY    33  33  99 SE9       29.74F FOG     WCI  26
CANBY          CLOUDY    34  32  92 SE6       29.69F FOG     WCI  29
MARSHALL       CLOUDY    36  30  80 S9        29.71F
REDWOOD FALLS  CLOUDY    35  34  96 SE13      29.73F FOG     WCI  26
OLIVIA         CLOUDY    34  34 100 SE9       29.73F FOG     WCI  26
PIPESTONE      FOG       34  34 100 S5        29.68F VSB 1/4 WCI  30
WINDOM         CLOUDY    36  36 100 S13       29.73F FOG
WORTHINGTON    CLOUDY    36 -13  12 S18       29.72F VSB 3/4
JACKSON        CLOUDY    36  34  93 S14G21    29.75F FOG
TRACY          CLOUDY    35  34  95 S16G24    29.70F FOG     WCI  26
SLAYTON        FOG       33  33 100 S18       29.70F VSB 1/2 WCI  22
$$
MNZ065>067-074>077-082>085-091>093-211900-
   South Central Minnesota

CITY           SKY/WX    TMP DP  RH WIND       PRES   REMARKS
MANKATO        CLOUDY    36  32  87 S14       29.78F
NEW ULM        CLOUDY    36  36 100 S12       29.75F FOG
ST JAMES       CLOUDY    37  36  93 SE13      29.76F FOG
FAIRMONT       CLOUDY    36  34  93 S16       29.76F
GLENCOE        FOG       36  36 100 SE10      29.77F VSB 1
FARIBAULT      CLOUDY    36  36 100 S12       29.82F FOG
OWATONNA       CLOUDY    36  34  93 S15       29.82F FOG
WASECA         CLOUDY    36  36 100 S16G22    29.82F FOG
ALBERT LEA     FOG       36  36 100 S12G18    29.82F VSB 3/4
$$
MNZ078>079-086>088-094>096-211900-
   Southeast Minnesota

CITY           SKY/WX    TMP DP  RH WIND       PRES   REMARKS
ROCHESTER      CLOUDY    35  34  96 S20G31    29.85F FOG     WCI  24
6HR MIN TEMP:  32; 6HR MAX TEMP:  35;

RED WING       LGT RAIN  36  34  93 S9        29.85F
STANTON        CLOUDY    36  34  92 S9        29.81F FOG
DODGE CENTER   FOG       36  36 100 S17G25    29.83F VSB 1
WINONA         CLOUDY    36  34  93 SE9       29.91F FOG
AUSTIN         DRZL/FOG  36  36 100 S18       29.84F VSB 1
PRESTON        CLOUDY    34  34  98 S20G25    29.88F FOG     WCI  23
$$
ABBREVIATIONS USED IN REMARKS
   TC - TEMPERATURES IN CELSIUS
  WCI - WIND CHILL INDEX
   HX - HEAT INDEX
  VSB - VISIBILITY
$$


USA.gov is the U.S. government's official web portal to all federal, state and local government web resources and services.